Regional Weather Roundup
Issued by NWS

Home | Current Version | Previous Version | Text Only | Print | Product List | Glossary Off
Versions: 1 2 3 4 5 6 7 8 9 10 11 12 13 14 15 16 17 18 19 20 21 22 23 24 25 26 27 28 29 30 31 32 33 34 35 36 37 38 39 40 41 42 43 44 45 46 47 48 49 50

000
ASUS43 KIND 020009
RWRIN

WEATHER ROUNDUP FOR INDIANA
NATIONAL WEATHER SERVICE INDIANAPOLIS IN
800 PM EDT WED OCT 01 2014

NOTE: "FAIR" INDICATES FEW OR NO CLOUDS BELOW 12,000 FEET WITH NO
SIGNIFICANT WEATHER AND/OR OBSTRUCTIONS TO VISIBILITY.

* - STATION DOES NOT REPORT WEATHER SUCH AS PRECIPITATION OR FOG.

+ - STATION NOT QUALITY CONTROLLED BY THE NATIONAL WEATHER SERVICE.
    USE DATA WITH CAUTION...ESPECIALLY DEWPOINT AND RELATIVE
    HUMIDITY OBSERVATIONS.

INZ001>003-010>013-019-020-020100-
NORTHWEST INDIANA

CITY           SKY/WX    TMP DP  RH WIND       PRES   REMARKS
GARY /AIRPORT/ MOCLDY    66  54  63 SE5       29.92R
KNOX *+        CLEAR     61  50  67 SE5       29.94R
LA PORTE +     CLEAR     60  51  72 SE3       29.96R
6HR MIN TEMP:  60; 6HR MAX TEMP:  70;

MICHIGAN CITY+ CLEAR     61  46  59 SE3       29.95R
MONTICELLO +   PTCLDY    65  54  67 E3        29.93S
RENSSELAER +   CLEAR     64  54  68 E7        29.92F
VALPARAISO     CLEAR     59  50  72 E7        29.95R
6HR MIN TEMP:  59; 6HR MAX TEMP:  70;


$$

LMZ046-743>745-020100-
SOUTHERN LAKE MICHIGAN

STATION/POSITION TIME  TEMP WIND        PRES
                       AIR  DIR/SP/G
                 (UTC) (F)  (DEG/KT/KT) (MB)
MICHIGAN CITY    0000   65  120/  9/ 12   N/A

$$

INZ004-005-014>016-021>024-020100-
NORTH CENTRAL INDIANA

CITY           SKY/WX    TMP DP  RH WIND       PRES   REMARKS
ELKHART        CLEAR     61  48  63 E7        29.97S
LOGANSPORT +   CLEAR     57  48  72 E7        29.96S
PERU/GRISSOM   CLEAR     63  54  72 E6        29.97R
6HR MIN TEMP:  63; 6HR MAX TEMP:  71;

ROCHESTER +    CLEAR     61  52  72 SE6       29.97R
SOUTH BEND     NOT AVBL
WARSAW +       CLEAR     59  50  72 E5        29.98R

$$

INZ006>009-017-018-025>027-020100-
NORTHEAST INDIANA

CITY           SKY/WX    TMP DP  RH WIND       PRES   REMARKS
ANGOLA *+      CLEAR     57  48  72 SE3       30.00R
AUBURN +       CLEAR     55  48  76 E3        30.00S
FORT WAYNE     PTCLDY    59  50  72 SE5       30.00R
6HR MIN TEMP:  58; 6HR MAX TEMP:  67;

HUNTINGTON +   CLEAR     60  50  69 CALM      29.99R
6HR MIN TEMP:  59; 6HR MAX TEMP:  67;


$$

INZ028-029-035-036-043>045-051>053-020100-
WEST CENTRAL INDIANA

CITY           SKY/WX    TMP DP  RH WIND       PRES   REMARKS
GREENCASTLE +  PTCLDY    66  59  77 CALM      29.94S
LAFAYETTE      PTCLDY    65  57  75 E9        29.91F
6HR MIN TEMP:  65; 6HR MAX TEMP:  75;

TERRE HAUTE    CLEAR     72  61  68 SE6       29.91S
6HR MIN TEMP:  71; 6HR MAX TEMP:  81;


$$

INZ030>032-037>040-046>048-054>057-064-065-020100-
CENTRAL INDIANA

CITY           SKY/WX    TMP DP  RH WIND       PRES   REMARKS
CP ATTERBURY + CLEAR     68  61  77 CALM      29.96R
COLUMBUS       CLEAR     70  57  64 CALM      29.95
FRANKFORT +    CLEAR     66  55  68 SE5       29.97R
INDIANAPOLIS   PTCLDY    71  57  61 SE5       29.95R
6HR MIN TEMP:  70; 6HR MAX TEMP:  76;

-EAGLE CREEK   CLEAR     70  57  63 CALM      29.95R
6HR MIN TEMP:  70; 6HR MAX TEMP:  76;

KOKOMO *+      CLEAR     63  48  59 SE7       29.97S
MARION +       CLEAR     60  48  63 E5        29.99R
MT COMFORT *+  CLEAR     64  48  55 E7        29.97R
SHELBYVILLE    CLEAR     69  56  62 E7        29.96R
6HR MIN TEMP:  69; 6HR MAX TEMP:  81;

ZIONSVILLE +   CLEAR     66  54  63 E5        29.97R
6HR MIN TEMP:  65; 6HR MAX TEMP:  75;


$$

INZ033-034-041-042-049-050-058-059-020100-
EAST CENTRAL INDIANA

CITY           SKY/WX    TMP DP  RH WIND       PRES   REMARKS
MUNCIE         CLEAR     62  49  62 SE3       29.98R
6HR MIN TEMP:  61; 6HR MAX TEMP:  71;


$$

INZ060-061-067>069-081>083-085>088-020100-
SOUTHWEST INDIANA

CITY           SKY/WX    TMP DP  RH WIND       PRES   REMARKS
EVANSVILLE     CLEAR     78  58  49 CALM      29.90S
6HR MIN TEMP:  77; 6HR MAX TEMP:  87;

WASHINGTON +   CLEAR     66  57  72 CALM      29.90F
6HR MIN TEMP:  66; 6HR MAX TEMP:  85;


$$

INZ062-063-066-070>080-084-089>092-020100-
SOUTH CENTRAL AND SOUTHEAST INDIANA

CITY           SKY/WX    TMP DP  RH WIND       PRES   REMARKS
BLOOMINGTON    CLEAR     68  61  78 E3        29.94R
6HR MIN TEMP:  67; 6HR MAX TEMP:  79;


$$



USA.gov is the U.S. government's official web portal to all federal, state and local government web resources and services.